Погода в Хотине

Украина / Черновицкая область     48°30′34″N   26°29′30″E
темп.,
°C
ветер,
м/с
пор.,
м/с
влажн.,
%
обл.,
%
осадки,
мм/ч
давл.,
гПа
погр.,
м
27 февраля, сб
сб2723:00+6з12870 0.0 102222
02:00+5зсз35901 0.0 1022101
05:00+5ссз5129189 0.2 1022653
08:00+4зсз5129094 0.2 1024705
11:00+5сз61181100 0.6 10241074
14:00+5сз71171100 0.7 10241225
17:00+4сз71280100 0.0 1024938
20:00+4сз61277100 0.1 1026987
28 февраля, вс
вс2823:00+3зсз61280100 0.1 1027818
02:00+3сз71286100 0.1 1028795
05:00+1сз6138999 0.0 1028753
08:00+1сз7128399 0.1 1029987
11:00+2сз71073100 0.0 10291028
14:00+5сз8116392 0.1 10281118
17:00+4сз6116794 0.0 10271088
20:00+3зсз6127897 0.0 1028784
1 марта, пн
пн123:00+2зсз61296100 1.6 1027716
02:00+2сз5997100 4.2 1027484
05:00+2с5897100 0.6 1028469
08:00+2с588598 0.6 1030648
11:00+3с478096 0.0 1031684
14:00+4ссз677277 0.1 1032885
17:00+4ссз4872100 0.1 1032908
20:00+4сз3980100 0.1 1033430
2 марта, вт
вт223:00+3ссз278396 0.0 1034275
02:00+3зсз489098 0.0 1034340
05:00+3зсз51090100 0.0 1033352
08:00+2зсз5118991 0.0 1032366
11:00+7зсз6107382 0.0 1031597
14:00+10сз7106149 0.0 1030891
17:00+9сз6116451 0.0 1028839
20:00+6сз5147629 0.0 1030503
3 марта, ср
ср323:00+5сз413810 0.0 1031386
02:00+3сз410880 0.0 1031280
05:00+2зсз35910 0.0 1031117
08:00+2зсз269049 0.0 1031186
11:00+7сз46722 0.0 1030551
14:00+10сз45591 0.0 1029808
17:00+9сз24640 0.0 1028289
20:00+6сз11760 0.0 102822